Regional Weather Roundup
Issued by NWS Little Rock, AR

Home | Current Version | Previous Version | Graphics & Text | Print | Product List | Glossary On
Versions: 1 2 3 4 5 6 7 8 9 10 11 12 13 14 15 16 17 18 19 20 21 22 23 24 25 26 27 28 29 30 31 32 33 34 35 36 37 38 39 40 41 42 43 44 45 46 47 48 49 50
000
ASUS44 KLZK 271805
RWRLZK

WEATHER ROUNDUP FOR ARKANSAS
NATIONAL WEATHER SERVICE LITTLE ROCK AR
100 PM CDT FRI MAR 27 2015

NOTE: "FAIR" INDICATES FEW OR NO CLOUDS BELOW 12,000 FEET WITH NO
SIGNIFICANT WEATHER AND/OR OBSTRUCTIONS TO VISIBILITY.

ARZ001-003-010-029-271900-
NORTHWEST ARKANSAS

CITY           SKY/WX    TMP DP  RH WIND       PRES   REMARKS
FAYETTEVILLE   PTSUNNY   47  33  58 N12G21    30.18F
6HR MIN TEMP:  38; 6HR MAX TEMP:  47;

FORT SMITH     MOSUNNY   53  33  46 NW9       30.19F
6HR MIN TEMP:  42; 6HR MAX TEMP:  53;

HARRISON       PTSUNNY   44  32  62 N10       30.16F
6HR MIN TEMP:  38; 6HR MAX TEMP:  46; 6HR PCP: TRACE;

BENTONVILLE    MOSUNNY   46  28  49 N15G22    30.20S
6HR MIN TEMP:  39; 6HR MAX TEMP:  46;

ROGERS         PTSUNNY   45  28  51 N9G20     30.20S
SILOAM SPGS    PTSUNNY   46  28  49 N16       30.21S
6HR MIN TEMP:  37; 6HR MAX TEMP:  48;

HIGHFILL       MOSUNNY   48  27  44 N16G24    30.19S
6HR MIN TEMP:  39; 6HR MAX TEMP:  50; 6HR PCP: TRACE;

SPRINGDALE     MOSUNNY   46  28  49 N17       30.20F
$$

ARZ004-005-016-271900-
NORTH CENTRAL ARKANSAS

CITY           SKY/WX    TMP DP  RH WIND       PRES   REMARKS
BATESVILLE     CLOUDY    46  36  66 NW8       30.15S
6HR MIN TEMP:  39; 6HR MAX TEMP:  46; 6HR PCP:  0.08;

FLIPPIN        CLOUDY    45  30  57 N12       30.17F
6HR MIN TEMP:  37; 6HR MAX TEMP:  45; 6HR PCP:  0.01;

MTN HOME       CLOUDY    43  30  60 N9G18     30.16S
6HR MIN TEMP:  36; 6HR MAX TEMP:  44; 6HR PCP:  0.02;

$$

ARZ040-041-271900-
WEST CENTRAL ARKANSAS

CITY           SKY/WX    TMP DP  RH WIND       PRES   REMARKS
MENA           PTSUNNY   57  34  41 N13G20    30.14F
MOUNT IDA      PTSUNNY   57  34  41 N7G21     30.11R
6HR MIN TEMP:  39; 6HR MAX TEMP:  57;

$$

ARZ009-017-025-026-028-271900-
NORTHEAST ARKANSAS

CITY           SKY/WX    TMP DP  RH WIND       PRES   REMARKS
CORNING          N/A     46  32  57 N15G21    30.15S
JONESBORO      CLOUDY    44  33  65 N9        30.14R
6HR MIN TEMP:  40; 6HR MAX TEMP:  45; 6HR PCP:  0.03;

NEWPORT        CLOUDY    45  36  70 NE17      30.16R
6HR MIN TEMP:  41; 6HR MAX TEMP:  46; 6HR PCP:  0.03;

BLYTHEVILLE    PTSUNNY   47  36  65 N18       30.13S
6HR MIN TEMP:  40; 6HR MAX TEMP:  50; 6HR PCP: TRACE;

$$

ARZ022-023-033-042-044-271900-
CENTRAL ARKANSAS

CITY           SKY/WX    TMP DP  RH WIND       PRES   REMARKS
LITTLE ROCK    LGT RAIN  48  36  63 NW16      30.17R
6HR MIN TEMP:  42; 6HR MAX TEMP:  53; 6HR PCP: TRACE;

N LITTLE ROCK  CLOUDY    46  40  80 NW9       30.17R
6HR MIN TEMP:  43; 6HR MAX TEMP:  51;

JACKSONVILLE   DRIZZLE   48  38  66 NW8       30.16R
6HR MIN TEMP:  39; 6HR MAX TEMP:  50; 6HR PCP: TRACE;

SEARCY         CLOUDY    46  37  71 NW6       30.17S
6HR MIN TEMP:  40; 6HR MAX TEMP:  47; 6HR PCP: TRACE;

HOT SPRINGS    CLOUDY    55  31  39 N7        30.13S
6HR MIN TEMP:  40; 6HR MAX TEMP:  57;

RUSSELLVILLE   PTSUNNY   52  35  52 N13       30.16F
6HR MIN TEMP:  41; 6HR MAX TEMP:  52;

CLINTON        PTSUNNY   46  36  66 NW6       30.18S
$$

ARZ036-271900-
EAST ARKANSAS

CITY           SKY/WX    TMP DP  RH WIND       PRES   REMARKS
WEST MEMPHIS   LGT RAIN  45  40  82 N8        30.12R
6HR MIN TEMP:  37; 6HR MAX TEMP:  46; 6HR PCP: TRACE;

$$

ARZ050-053-066-070-073-271900-
SOUTHWEST ARKANSAS

CITY           SKY/WX    TMP DP  RH WIND       PRES   REMARKS
ARKADELPHIA    FAIR      58  38  47 NE10      30.13S
6HR MIN TEMP:  40; 6HR MAX TEMP:  59; 6HR PCP: TRACE;

CAMDEN         SUNNY     64  32  29 MISG      30.11S
TEXARKANA      CLOUDY    60  37  42 NW13G20   30.12R
6HR MIN TEMP:  39; 6HR MAX TEMP:  60;

EL DORADO      PTSUNNY   63  35  35 W10       30.08F
6HR MIN TEMP:  36; 6HR MAX TEMP:  63;

DE QUEEN       MOSUNNY   61  35  37 N16G24    30.13R
$$

ARZ056-057-069-271900-
SOUTHEAST ARKANSAS

CITY           SKY/WX    TMP DP  RH WIND       PRES   REMARKS
PINE BLUFF     CLOUDY    53  41  63 N10       30.14R
6HR MIN TEMP:  38; 6HR MAX TEMP:  54;

STUTTGART      CLOUDY    46  37  71 N15       30.16R
6HR MIN TEMP:  43; 6HR MAX TEMP:  50;

MONTICELLO     CLOUDY    57  37  47 VRB6      30.10S
6HR MIN TEMP:  36; 6HR MAX TEMP:  57;


$$





USA.gov is the U.S. government's official web portal to all federal, state and local government web resources and services.